Weather in Borisoglebsky

Russia / Murmansk Oblast     69°39′01″N   30°08′42″E
temp.,
°C
wind,
m/s
gust,
m/s
humid.,
%
clouds,
%
prec.,
mm/h
press.,
hPa
HPBL,
m
2 march, tue
tue200:00−2nnw131672100 0.3 993980
03:00−2nw14177392 0.5 997962
06:00−2nnw14187397 0.3 9981153
09:00−2nw13177399 0.8 10011108
12:00−2nnw13177099 0.3 10031205
15:00−2wnw10147888 0.4 1003752
18:00−2nw8117494 0.4 1003661
21:00−4nnw8107391 0.4 1004560
3 march, wed
wed300:00−3nnw8107291 0.1 1003636
03:00−5nw577287 0.1 1004486
06:00−6wsw357899 0.0 1002203
09:00−7ssw3395100 0.3 100190
12:00−6ssw1193100 0.6 100079
15:00−4nnw4680100 0.7 1000513
18:00−4n6876100 0.3 1001512
21:00−4nnw81173100 0.6 1002628
4 march, thu
thu400:00−5nw589099 0.6 1001332
03:00−3nnw81079100 1.1 1001551
06:00−2nw111473100 0.6 1000888
09:00−3ne81076100 1.3 1001626
12:00−4ne101180100 0.3 10041011
15:00−5ne5671100 0.4 1007644
18:00−5n7986100 0.8 1008717
21:00−5nne81065100 1.1 1008701
5 march, fri
fri500:00−5n7879100 0.4 1009556
03:00−5n7973100 0.9 1010524
06:00−6nnw897398 0.4 1010497
09:00−6nw679399 1.1 1010325
12:00−6nw4491100 1.0 1010325
15:00−5nnw567699 1.8 1010472
18:00−6nnw7967100 0.6 1010737
21:00−7nw5769100 0.8 1009608
6 march, sat
sat600:00−10wsw4688100 0.1 1007199
03:00−13ssw579498 0.1 1004127
06:00−13s799794 0.0 1000142
09:00−12s8129197 0.0 996220
12:00−10s81286100 0.0 994306
15:00−9s4977100 0.1 992360
18:00−9ese3793100 0.3 993274
21:00−10ese5886100 0.3 995205